owner,sensor,date,latitude,longitude,vertical_datum,sea_water_temperature,qcFlag 
SCCF RECON,ioos:station:SCCF:16:1,2009-11-01T00:00:00Z,26.4345,-81.9647,2.5,27.69,2 
SCCF RECON,ioos:station:SCCF:16:1,2009-11-01T01:00:00Z,26.4345,-81.9647,2.5,27.56,2 
SCCF RECON,ioos:station:SCCF:16:1,2009-11-01T02:00:00Z,26.4345,-81.9647,2.5,27.55,2 
SCCF RECON,ioos:station:SCCF:16:1,2009-11-01T03:00:00Z,26.4345,-81.9647,2.5,27.55,2 
SCCF RECON,ioos:station:SCCF:16:1,2009-11-01T04:00:00Z,26.4345,-81.9647,2.5,27.68,2 
SCCF RECON,ioos:station:SCCF:16:1,2009-11-01T05:00:00Z,26.4345,-81.9647,2.5,27.63,2 
SCCF RECON,ioos:station:SCCF:16:1,2009-11-01T06:00:00Z,26.4345,-81.9647,2.5,27.64,2 
SCCF RECON,ioos:station:SCCF:16:1,2009-11-01T07:00:00Z,26.4345,-81.9647,2.5,27.52,2 
SCCF RECON,ioos:station:SCCF:16:1,2009-11-01T08:00:00Z,26.4345,-81.9647,2.5,27.59,2 
SCCF RECON,ioos:station:SCCF:16:1,2009-11-01T09:00:00Z,26.4345,-81.9647,2.5,27.52,2 
SCCF RECON,ioos:station:SCCF:16:1,2009-11-01T10:00:00Z,26.4345,-81.9647,2.5,27.44,2 
SCCF RECON,ioos:station:SCCF:16:1,2009-11-01T11:00:00Z,26.4345,-81.9647,2.5,27.66,2 
SCCF RECON,ioos:station:SCCF:16:1,2009-11-01T12:00:00Z,26.4345,-81.9647,2.5,27.53,2 
SCCF RECON,ioos:station:SCCF:16:1,2009-11-01T13:00:00Z,26.4345,-81.9647,2.5,27.46,2 
SCCF RECON,ioos:station:SCCF:16:1,2009-11-01T14:00:00Z,26.4345,-81.9647,2.5,27.26,2 
SCCF RECON,ioos:station:SCCF:16:1,2009-11-01T15:00:00Z,26.4345,-81.9647,2.5,27.45,2 
SCCF RECON,ioos:station:SCCF:16:1,2009-11-01T16:00:00Z,26.4345,-81.9647,2.5,27.43,2 
SCCF RECON,ioos:station:SCCF:16:1,2009-11-01T17:00:00Z,26.4345,-81.9647,2.5,27.7,2 
SCCF RECON,ioos:station:SCCF:16:1,2009-11-01T18:00:00Z,26.4345,-81.9647,2.5,27.73,2 
SCCF RECON,ioos:station:SCCF:16:1,2009-11-01T19:00:00Z,26.4345,-81.9647,2.5,27.86,2 
SCCF RECON,ioos:station:SCCF:16:1,2009-11-01T20:00:00Z,26.4345,-81.9647,2.5,27.96,2 
SCCF RECON,ioos:station:SCCF:16:1,2009-11-01T21:00:00Z,26.4345,-81.9647,2.5,28.03,2 
SCCF RECON,ioos:station:SCCF:16:1,2009-11-01T22:00:00Z,26.4345,-81.9647,2.5,28.02,2 
SCCF RECON,ioos:station:SCCF:16:1,2009-11-01T23:00:00Z,26.4345,-81.9647,2.5,27.79,2 
SCCF RECON,ioos:station:SCCF:16:1,2009-11-02T00:00:00Z,26.4345,-81.9647,2.5,27.79,2 
SCCF RECON,ioos:station:SCCF:16:1,2009-11-02T01:00:00Z,26.4345,-81.9647,2.5,27.8,2 
SCCF RECON,ioos:station:SCCF:16:1,2009-11-02T02:00:00Z,26.4345,-81.9647,2.5,27.78,2 
SCCF RECON,ioos:station:SCCF:16:1,2009-11-02T03:00:00Z,26.4345,-81.9647,2.5,27.75,2 
SCCF RECON,ioos:station:SCCF:16:1,2009-11-02T04:00:00Z,26.4345,-81.9647,2.5,27.58,2 
SCCF RECON,ioos:station:SCCF:16:1,2009-11-02T05:00:00Z,26.4345,-81.9647,2.5,27.43,2 
SCCF RECON,ioos:station:SCCF:16:1,2009-11-02T06:00:00Z,26.4345,-81.9647,2.5,27.4,2 
SCCF RECON,ioos:station:SCCF:16:1,2009-11-02T07:00:00Z,26.4345,-81.9647,2.5,27.52,2 
SCCF RECON,ioos:station:SCCF:16:1,2009-11-02T08:00:00Z,26.4345,-81.9647,2.5,27.51,2 
SCCF RECON,ioos:station:SCCF:16:1,2009-11-02T09:00:00Z,26.4345,-81.9647,2.5,27.43,2 
SCCF RECON,ioos:station:SCCF:16:1,2009-11-02T10:00:00Z,26.4345,-81.9647,2.5,27.45,2 
SCCF RECON,ioos:station:SCCF:16:1,2009-11-02T11:00:00Z,26.4345,-81.9647,2.5,27.43,2 
SCCF RECON,ioos:station:SCCF:16:1,2009-11-02T12:00:00Z,26.4345,-81.9647,2.5,27.3,2 
SCCF RECON,ioos:station:SCCF:16:1,2009-11-02T13:00:00Z,26.4345,-81.9647,2.5,27.39,2 
SCCF RECON,ioos:station:SCCF:16:1,2009-11-02T14:00:00Z,26.4345,-81.9647,2.5,27.01,2 
SCCF RECON,ioos:station:SCCF:16:1,2009-11-02T15:00:00Z,26.4345,-81.9647,2.5,26.96,2 
SCCF RECON,ioos:station:SCCF:16:1,2009-11-02T16:00:00Z,26.4345,-81.9647,2.5,26.95,2 
SCCF RECON,ioos:station:SCCF:16:1,2009-11-02T17:00:00Z,26.4345,-81.9647,2.5,26.97,2 
SCCF RECON,ioos:station:SCCF:16:1,2009-11-02T18:00:00Z,26.4345,-81.9647,2.5,26.89,2 
SCCF RECON,ioos:station:SCCF:16:1,2009-11-02T19:00:00Z,26.4345,-81.9647,2.5,26.93,2 
SCCF RECON,ioos:station:SCCF:16:1,2009-11-02T20:00:00Z,26.4345,-81.9647,2.5,27.1,2 
SCCF RECON,ioos:station:SCCF:16:1,2009-11-02T21:00:00Z,26.4345,-81.9647,2.5,27.21,2 
SCCF RECON,ioos:station:SCCF:16:1,2009-11-02T22:00:00Z,26.4345,-81.9647,2.5,27.41,2 
SCCF RECON,ioos:station:SCCF:16:1,2009-11-02T23:00:00Z,26.4345,-81.9647,2.5,27.63,2 
SCCF RECON,ioos:station:SCCF:16:1,2009-11-03T00:00:00Z,26.4345,-81.9647,2.5,27.55,2 
SCCF RECON,ioos:station:SCCF:16:1,2009-11-03T01:00:00Z,26.4345,-81.9647,2.5,27.55,2 
SCCF RECON,ioos:station:SCCF:16:1,2009-11-03T02:00:00Z,26.4345,-81.9647,2.5,27.27,2 
SCCF RECON,ioos:station:SCCF:16:1,2009-11-03T03:00:00Z,26.4345,-81.9647,2.5,27.08,2 
SCCF RECON,ioos:station:SCCF:16:1,2009-11-03T04:00:00Z,26.4345,-81.9647,2.5,27.0,2 
SCCF RECON,ioos:station:SCCF:16:1,2009-11-03T05:00:00Z,26.4345,-81.9647,2.5,26.84,2 
SCCF RECON,ioos:station:SCCF:16:1,2009-11-03T06:00:00Z,26.4345,-81.9647,2.5,26.76,2 
SCCF RECON,ioos:station:SCCF:16:1,2009-11-03T07:00:00Z,26.4345,-81.9647,2.5,26.82,2 
SCCF RECON,ioos:station:SCCF:16:1,2009-11-03T08:00:00Z,26.4345,-81.9647,2.5,27.02,2 
SCCF RECON,ioos:station:SCCF:16:1,2009-11-03T09:00:00Z,26.4345,-81.9647,2.5,27.04,2 
SCCF RECON,ioos:station:SCCF:16:1,2009-11-03T10:00:00Z,26.4345,-81.9647,2.5,27.12,2 
SCCF RECON,ioos:station:SCCF:16:1,2009-11-03T11:00:00Z,26.4345,-81.9647,2.5,27.16,2 
SCCF RECON,ioos:station:SCCF:16:1,2009-11-03T12:00:00Z,26.4345,-81.9647,2.5,27.11,2 
SCCF RECON,ioos:station:SCCF:16:1,2009-11-03T13:00:00Z,26.4345,-81.9647,2.5,26.97,2 
SCCF RECON,ioos:station:SCCF:16:1,2009-11-03T14:00:00Z,26.4345,-81.9647,2.5,27.12,2 
SCCF RECON,ioos:station:SCCF:16:1,2009-11-03T15:00:00Z,26.4345,-81.9647,2.5,26.92,2 
SCCF RECON,ioos:station:SCCF:16:1,2009-11-03T16:00:00Z,26.4345,-81.9647,2.5,26.79,2 
SCCF RECON,ioos:station:SCCF:16:1,2009-11-03T17:00:00Z,26.4345,-81.9647,2.5,26.67,2 
SCCF RECON,ioos:station:SCCF:16:1,2009-11-03T18:00:00Z,26.4345,-81.9647,2.5,26.71,2 
SCCF RECON,ioos:station:SCCF:16:1,2009-11-03T19:00:00Z,26.4345,-81.9647,2.5,26.81,2 
SCCF RECON,ioos:station:SCCF:16:1,2009-11-03T20:00:00Z,26.4345,-81.9647,2.5,26.89,2 
SCCF RECON,ioos:station:SCCF:16:1,2009-11-03T21:00:00Z,26.4345,-81.9647,2.5,27.04,2 
SCCF RECON,ioos:station:SCCF:16:1,2009-11-03T22:00:00Z,26.4345,-81.9647,2.5,27.47,2 
SCCF RECON,ioos:station:SCCF:16:1,2009-11-03T23:00:00Z,26.4345,-81.9647,2.5,27.09,2 
SCCF RECON,ioos:station:SCCF:16:1,2009-11-04T00:00:00Z,26.4345,-81.9647,2.5,27.44,2 
SCCF RECON,ioos:station:SCCF:16:1,2009-11-04T01:00:00Z,26.4345,-81.9647,2.5,27.33,2 
SCCF RECON,ioos:station:SCCF:16:1,2009-11-04T02:00:00Z,26.4345,-81.9647,2.5,27.2,2 
SCCF RECON,ioos:station:SCCF:16:1,2009-11-04T03:00:00Z,26.4345,-81.9647,2.5,27.16,2 
SCCF RECON,ioos:station:SCCF:16:1,2009-11-04T04:00:00Z,26.4345,-81.9647,2.5,27.1,2 
SCCF RECON,ioos:station:SCCF:16:1,2009-11-04T05:00:00Z,26.4345,-81.9647,2.5,27.03,2 
SCCF RECON,ioos:station:SCCF:16:1,2009-11-04T06:00:00Z,26.4345,-81.9647,2.5,26.96,2 
SCCF RECON,ioos:station:SCCF:16:1,2009-11-04T07:00:00Z,26.4345,-81.9647,2.5,26.81,2 
SCCF RECON,ioos:station:SCCF:16:1,2009-11-04T08:00:00Z,26.4345,-81.9647,2.5,26.63,2 
SCCF RECON,ioos:station:SCCF:16:1,2009-11-04T09:00:00Z,26.4345,-81.9647,2.5,26.65,2 
SCCF RECON,ioos:station:SCCF:16:1,2009-11-04T10:00:00Z,26.4345,-81.9647,2.5,26.56,2 
SCCF RECON,ioos:station:SCCF:16:1,2009-11-04T11:00:00Z,26.4345,-81.9647,2.5,26.43,2 
SCCF RECON,ioos:station:SCCF:16:1,2009-11-04T12:00:00Z,26.4345,-81.9647,2.5,26.37,2 
SCCF RECON,ioos:station:SCCF:16:1,2009-11-04T13:00:00Z,26.4345,-81.9647,2.5,26.18,2 
SCCF RECON,ioos:station:SCCF:16:1,2009-11-04T14:00:00Z,26.4345,-81.9647,2.5,26.17,2 
SCCF RECON,ioos:station:SCCF:16:1,2009-11-04T15:00:00Z,26.4345,-81.9647,2.5,26.31,2 
SCCF RECON,ioos:station:SCCF:16:1,2009-11-04T16:00:00Z,26.4345,-81.9647,2.5,26.42,2 
SCCF RECON,ioos:station:SCCF:16:1,2009-11-04T17:00:00Z,26.4345,-81.9647,2.5,26.51,2 
SCCF RECON,ioos:station:SCCF:16:1,2009-11-04T18:00:00Z,26.4345,-81.9647,2.5,26.68,2 
SCCF RECON,ioos:station:SCCF:16:1,2009-11-04T19:00:00Z,26.4345,-81.9647,2.5,26.74,2 
SCCF RECON,ioos:station:SCCF:16:1,2009-11-04T20:00:00Z,26.4345,-81.9647,2.5,26.79,2 
SCCF RECON,ioos:station:SCCF:16:1,2009-11-04T21:00:00Z,26.4345,-81.9647,2.5,26.73,2 
SCCF RECON,ioos:station:SCCF:16:1,2009-11-04T22:00:00Z,26.4345,-81.9647,2.5,26.68,2 
SCCF RECON,ioos:station:SCCF:16:1,2009-11-04T23:00:00Z,26.4345,-81.9647,2.5,26.64,2 
SCCF RECON,ioos:station:SCCF:16:1,2009-11-05T00:00:00Z,26.4345,-81.9647,2.5,26.61,2 
SCCF RECON,ioos:station:SCCF:16:1,2009-11-05T01:00:00Z,26.4345,-81.9647,2.5,26.58,2 
SCCF RECON,ioos:station:SCCF:16:1,2009-11-05T02:00:00Z,26.4345,-81.9647,2.5,26.51,2 
SCCF RECON,ioos:station:SCCF:16:1,2009-11-05T03:00:00Z,26.4345,-81.9647,2.5,26.48,2 
SCCF RECON,ioos:station:SCCF:16:1,2009-11-05T04:00:00Z,26.4345,-81.9647,2.5,26.42,2 
SCCF RECON,ioos:station:SCCF:16:1,2009-11-05T05:00:00Z,26.4345,-81.9647,2.5,26.39,2 
SCCF RECON,ioos:station:SCCF:16:1,2009-11-05T06:00:00Z,26.4345,-81.9647,2.5,26.36,2 
SCCF RECON,ioos:station:SCCF:16:1,2009-11-05T07:00:00Z,26.4345,-81.9647,2.5,26.31,2 
SCCF RECON,ioos:station:SCCF:16:1,2009-11-05T08:00:00Z,26.4345,-81.9647,2.5,26.24,2 
SCCF RECON,ioos:station:SCCF:16:1,2009-11-05T09:00:00Z,26.4345,-81.9647,2.5,26.19,2 
SCCF RECON,ioos:station:SCCF:16:1,2009-11-05T10:00:00Z,26.4345,-81.9647,2.5,26.18,2 
SCCF RECON,ioos:station:SCCF:16:1,2009-11-05T11:00:00Z,26.4345,-81.9647,2.5,26.08,2 
SCCF RECON,ioos:station:SCCF:16:1,2009-11-05T12:00:00Z,26.4345,-81.9647,2.5,25.98,2 
SCCF RECON,ioos:station:SCCF:16:1,2009-11-05T13:00:00Z,26.4345,-81.9647,2.5,25.68,2 
SCCF RECON,ioos:station:SCCF:16:1,2009-11-05T14:00:00Z,26.4345,-81.9647,2.5,25.54,2 
SCCF RECON,ioos:station:SCCF:16:1,2009-11-05T15:00:00Z,26.4345,-81.9647,2.5,25.55,2 
SCCF RECON,ioos:station:SCCF:16:1,2009-11-05T16:00:00Z,26.4345,-81.9647,2.5,25.7,2 
SCCF RECON,ioos:station:SCCF:16:1,2009-11-05T17:00:00Z,26.4345,-81.9647,2.5,25.82,2 
SCCF RECON,ioos:station:SCCF:16:1,2009-11-05T18:00:00Z,26.4345,-81.9647,2.5,25.91,2 
SCCF RECON,ioos:station:SCCF:16:1,2009-11-05T19:00:00Z,26.4345,-81.9647,2.5,25.93,2 
SCCF RECON,ioos:station:SCCF:16:1,2009-11-05T20:00:00Z,26.4345,-81.9647,2.5,26.02,2 
SCCF RECON,ioos:station:SCCF:16:1,2009-11-05T21:00:00Z,26.4345,-81.9647,2.5,26.08,2 
SCCF RECON,ioos:station:SCCF:16:1,2009-11-05T22:00:00Z,26.4345,-81.9647,2.5,26.04,2 
SCCF RECON,ioos:station:SCCF:16:1,2009-11-05T23:00:00Z,26.4345,-81.9647,2.5,25.99,2 
SCCF RECON,ioos:station:SCCF:16:1,2009-11-06T00:00:00Z,26.4345,-81.9647,2.5,25.95,2 
SCCF RECON,ioos:station:SCCF:16:1,2009-11-06T01:00:00Z,26.4345,-81.9647,2.5,25.86,2 
SCCF RECON,ioos:station:SCCF:16:1,2009-11-06T02:00:00Z,26.4345,-81.9647,2.5,25.85,2 
SCCF RECON,ioos:station:SCCF:16:1,2009-11-06T03:00:00Z,26.4345,-81.9647,2.5,25.77,2 
SCCF RECON,ioos:station:SCCF:16:1,2009-11-06T04:00:00Z,26.4345,-81.9647,2.5,25.7,2 
SCCF RECON,ioos:station:SCCF:16:1,2009-11-06T05:00:00Z,26.4345,-81.9647,2.5,25.57,2 
SCCF RECON,ioos:station:SCCF:16:1,2009-11-06T06:00:00Z,26.4345,-81.9647,2.5,25.47,2 
SCCF RECON,ioos:station:SCCF:16:1,2009-11-06T07:00:00Z,26.4345,-81.9647,2.5,25.37,2 
SCCF RECON,ioos:station:SCCF:16:1,2009-11-06T08:00:00Z,26.4345,-81.9647,2.5,25.29,2 
SCCF RECON,ioos:station:SCCF:16:1,2009-11-06T09:00:00Z,26.4345,-81.9647,2.5,25.18,2 
SCCF RECON,ioos:station:SCCF:16:1,2009-11-06T10:00:00Z,26.4345,-81.9647,2.5,25.07,2 
SCCF RECON,ioos:station:SCCF:16:1,2009-11-06T11:00:00Z,26.4345,-81.9647,2.5,25.02,2 
SCCF RECON,ioos:station:SCCF:16:1,2009-11-06T12:00:00Z,26.4345,-81.9647,2.5,24.27,2 
SCCF RECON,ioos:station:SCCF:16:1,2009-11-06T13:00:00Z,26.4345,-81.9647,2.5,24.49,2 
SCCF RECON,ioos:station:SCCF:16:1,2009-11-06T14:00:00Z,26.4345,-81.9647,2.5,23.67,2 
SCCF RECON,ioos:station:SCCF:16:1,2009-11-06T15:00:00Z,26.4345,-81.9647,2.5,23.66,2 
SCCF RECON,ioos:station:SCCF:16:1,2009-11-06T16:00:00Z,26.4345,-81.9647,2.5,23.96,2 
SCCF RECON,ioos:station:SCCF:16:1,2009-11-06T17:00:00Z,26.4345,-81.9647,2.5,24.0,2 
SCCF RECON,ioos:station:SCCF:16:1,2009-11-06T18:00:00Z,26.4345,-81.9647,2.5,24.07,2 
SCCF RECON,ioos:station:SCCF:16:1,2009-11-06T19:00:00Z,26.4345,-81.9647,2.5,24.26,2 
SCCF RECON,ioos:station:SCCF:16:1,2009-11-06T20:00:00Z,26.4345,-81.9647,2.5,24.44,2 
SCCF RECON,ioos:station:SCCF:16:1,2009-11-06T21:00:00Z,26.4345,-81.9647,2.5,24.64,2 
SCCF RECON,ioos:station:SCCF:16:1,2009-11-06T22:00:00Z,26.4345,-81.9647,2.5,24.68,2 
SCCF RECON,ioos:station:SCCF:16:1,2009-11-06T23:00:00Z,26.4345,-81.9647,2.5,24.74,2 
SCCF RECON,ioos:station:SCCF:16:1,2009-11-07T00:00:00Z,26.4345,-81.9647,2.5,24.68,2 
SCCF RECON,ioos:station:SCCF:16:1,2009-11-07T01:00:00Z,26.4345,-81.9647,2.5,24.65,2 
SCCF RECON,ioos:station:SCCF:16:1,2009-11-07T02:00:00Z,26.4345,-81.9647,2.5,24.56,2 
SCCF RECON,ioos:station:SCCF:16:1,2009-11-07T03:00:00Z,26.4345,-81.9647,2.5,24.48,2 
SCCF RECON,ioos:station:SCCF:16:1,2009-11-07T04:00:00Z,26.4345,-81.9647,2.5,24.47,2 
SCCF RECON,ioos:station:SCCF:16:1,2009-11-07T05:00:00Z,26.4345,-81.9647,2.5,24.48,2 
SCCF RECON,ioos:station:SCCF:16:1,2009-11-07T06:00:00Z,26.4345,-81.9647,2.5,24.52,2 
SCCF RECON,ioos:station:SCCF:16:1,2009-11-07T07:00:00Z,26.4345,-81.9647,2.5,24.56,2 
SCCF RECON,ioos:station:SCCF:16:1,2009-11-07T08:00:00Z,26.4345,-81.9647,2.5,24.56,2 
SCCF RECON,ioos:station:SCCF:16:1,2009-11-07T09:00:00Z,26.4345,-81.9647,2.5,24.53,2 
SCCF RECON,ioos:station:SCCF:16:1,2009-11-07T10:00:00Z,26.4345,-81.9647,2.5,24.52,2 
SCCF RECON,ioos:station:SCCF:16:1,2009-11-07T11:00:00Z,26.4345,-81.9647,2.5,24.42,2 
SCCF RECON,ioos:station:SCCF:16:1,2009-11-07T12:00:00Z,26.4345,-81.9647,2.5,24.18,2 
SCCF RECON,ioos:station:SCCF:16:1,2009-11-07T13:00:00Z,26.4345,-81.9647,2.5,23.97,2 
SCCF RECON,ioos:station:SCCF:16:1,2009-11-07T14:00:00Z,26.4345,-81.9647,2.5,23.81,2 
SCCF RECON,ioos:station:SCCF:16:1,2009-11-07T15:00:00Z,26.4345,-81.9647,2.5,23.63,2 
SCCF RECON,ioos:station:SCCF:16:1,2009-11-07T16:00:00Z,26.4345,-81.9647,2.5,23.39,2 
SCCF RECON,ioos:station:SCCF:16:1,2009-11-07T17:00:00Z,26.4345,-81.9647,2.5,23.46,2 
SCCF RECON,ioos:station:SCCF:16:1,2009-11-07T18:00:00Z,26.4345,-81.9647,2.5,23.7,2 
SCCF RECON,ioos:station:SCCF:16:1,2009-11-07T19:00:00Z,26.4345,-81.9647,2.5,24.07,2 
SCCF RECON,ioos:station:SCCF:16:1,2009-11-07T20:00:00Z,26.4345,-81.9647,2.5,24.22,2 
SCCF RECON,ioos:station:SCCF:16:1,2009-11-07T21:00:00Z,26.4345,-81.9647,2.5,24.26,2 
SCCF RECON,ioos:station:SCCF:16:1,2009-11-07T22:00:00Z,26.4345,-81.9647,2.5,24.46,2 
SCCF RECON,ioos:station:SCCF:16:1,2009-11-07T23:00:00Z,26.4345,-81.9647,2.5,24.51,2 
SCCF RECON,ioos:station:SCCF:16:1,2009-11-08T00:00:00Z,26.4345,-81.9647,2.5,24.47,2 
SCCF RECON,ioos:station:SCCF:16:1,2009-11-08T01:00:00Z,26.4345,-81.9647,2.5,24.44,2 
SCCF RECON,ioos:station:SCCF:16:1,2009-11-08T02:00:00Z,26.4345,-81.9647,2.5,24.38,2 
SCCF RECON,ioos:station:SCCF:16:1,2009-11-08T03:00:00Z,26.4345,-81.9647,2.5,24.33,2 
SCCF RECON,ioos:station:SCCF:16:1,2009-11-08T04:00:00Z,26.4345,-81.9647,2.5,24.28,2 
SCCF RECON,ioos:station:SCCF:16:1,2009-11-08T05:00:00Z,26.4345,-81.9647,2.5,24.25,2 
SCCF RECON,ioos:station:SCCF:16:1,2009-11-08T06:00:00Z,26.4345,-81.9647,2.5,24.18,2 
SCCF RECON,ioos:station:SCCF:16:1,2009-11-08T07:00:00Z,26.4345,-81.9647,2.5,24.21,2 
SCCF RECON,ioos:station:SCCF:16:1,2009-11-08T08:00:00Z,26.4345,-81.9647,2.5,24.22,2 
SCCF RECON,ioos:station:SCCF:16:1,2009-11-08T09:00:00Z,26.4345,-81.9647,2.5,24.2,2 
SCCF RECON,ioos:station:SCCF:16:1,2009-11-08T10:00:00Z,26.4345,-81.9647,2.5,24.18,2 
SCCF RECON,ioos:station:SCCF:16:1,2009-11-08T11:00:00Z,26.4345,-81.9647,2.5,24.11,2 
SCCF RECON,ioos:station:SCCF:16:1,2009-11-08T12:00:00Z,26.4345,-81.9647,2.5,24.02,2 
SCCF RECON,ioos:station:SCCF:16:1,2009-11-08T13:00:00Z,26.4345,-81.9647,2.5,23.94,2 
SCCF RECON,ioos:station:SCCF:16:1,2009-11-08T14:00:00Z,26.4345,-81.9647,2.5,23.84,2 
SCCF RECON,ioos:station:SCCF:16:1,2009-11-08T15:00:00Z,26.4345,-81.9647,2.5,23.62,2 
SCCF RECON,ioos:station:SCCF:16:1,2009-11-08T16:00:00Z,26.4345,-81.9647,2.5,23.25,2 
SCCF RECON,ioos:station:SCCF:16:1,2009-11-08T17:00:00Z,26.4345,-81.9647,2.5,23.28,2 
SCCF RECON,ioos:station:SCCF:16:1,2009-11-08T18:00:00Z,26.4345,-81.9647,2.5,23.36,2 
SCCF RECON,ioos:station:SCCF:16:1,2009-11-08T19:00:00Z,26.4345,-81.9647,2.5,23.86,2 
SCCF RECON,ioos:station:SCCF:16:1,2009-11-08T20:00:00Z,26.4345,-81.9647,2.5,24.07,2 
SCCF RECON,ioos:station:SCCF:16:1,2009-11-08T21:00:00Z,26.4345,-81.9647,2.5,24.01,2 
SCCF RECON,ioos:station:SCCF:16:1,2009-11-08T22:00:00Z,26.4345,-81.9647,2.5,24.24,2 
SCCF RECON,ioos:station:SCCF:16:1,2009-11-08T23:00:00Z,26.4345,-81.9647,2.5,24.25,2 
SCCF RECON,ioos:station:SCCF:16:1,2009-11-09T00:00:00Z,26.4345,-81.9647,2.5,24.21,2 
SCCF RECON,ioos:station:SCCF:16:1,2009-11-09T01:00:00Z,26.4345,-81.9647,2.5,24.18,2 
SCCF RECON,ioos:station:SCCF:16:1,2009-11-09T02:00:00Z,26.4345,-81.9647,2.5,24.11,2 
SCCF RECON,ioos:station:SCCF:16:1,2009-11-09T03:00:00Z,26.4345,-81.9647,2.5,24.02,2 
SCCF RECON,ioos:station:SCCF:16:1,2009-11-09T04:00:00Z,26.4345,-81.9647,2.5,23.98,2 
SCCF RECON,ioos:station:SCCF:16:1,2009-11-09T05:00:00Z,26.4345,-81.9647,2.5,23.93,2 
SCCF RECON,ioos:station:SCCF:16:1,2009-11-09T06:00:00Z,26.4345,-81.9647,2.5,23.83,2 
SCCF RECON,ioos:station:SCCF:16:1,2009-11-09T07:00:00Z,26.4345,-81.9647,2.5,23.86,2 
SCCF RECON,ioos:station:SCCF:16:1,2009-11-09T08:00:00Z,26.4345,-81.9647,2.5,23.93,2 
SCCF RECON,ioos:station:SCCF:16:1,2009-11-09T09:00:00Z,26.4345,-81.9647,2.5,24.02,2 
SCCF RECON,ioos:station:SCCF:16:1,2009-11-09T10:00:00Z,26.4345,-81.9647,2.5,24.0,2 
SCCF RECON,ioos:station:SCCF:16:1,2009-11-09T11:00:00Z,26.4345,-81.9647,2.5,23.96,2 
SCCF RECON,ioos:station:SCCF:16:1,2009-11-09T12:00:00Z,26.4345,-81.9647,2.5,23.89,2 
SCCF RECON,ioos:station:SCCF:16:1,2009-11-09T13:00:00Z,26.4345,-81.9647,2.5,23.79,2 
SCCF RECON,ioos:station:SCCF:16:1,2009-11-09T14:00:00Z,26.4345,-81.9647,2.5,23.6,2 
SCCF RECON,ioos:station:SCCF:16:1,2009-11-09T15:00:00Z,26.4345,-81.9647,2.5,23.15,2 
SCCF RECON,ioos:station:SCCF:16:1,2009-11-09T16:00:00Z,26.4345,-81.9647,2.5,23.0,2 
SCCF RECON,ioos:station:SCCF:16:1,2009-11-09T17:00:00Z,26.4345,-81.9647,2.5,23.14,2 
SCCF RECON,ioos:station:SCCF:16:1,2009-11-09T18:00:00Z,26.4345,-81.9647,2.5,23.25,2 
SCCF RECON,ioos:station:SCCF:16:1,2009-11-09T19:00:00Z,26.4345,-81.9647,2.5,23.14,2 
SCCF RECON,ioos:station:SCCF:16:1,2009-11-09T20:00:00Z,26.4345,-81.9647,2.5,22.94,2 
SCCF RECON,ioos:station:SCCF:16:1,2009-11-09T21:00:00Z,26.4345,-81.9647,2.5,22.98,2 
SCCF RECON,ioos:station:SCCF:16:1,2009-11-09T22:00:00Z,26.4345,-81.9647,2.5,23.73,2 
SCCF RECON,ioos:station:SCCF:16:1,2009-11-09T23:00:00Z,26.4345,-81.9647,2.5,23.56,2 
SCCF RECON,ioos:station:SCCF:16:1,2009-11-10T00:00:00Z,26.4345,-81.9647,2.5,23.81,2 
SCCF RECON,ioos:station:SCCF:16:1,2009-11-10T01:00:00Z,26.4345,-81.9647,2.5,23.91,2 
SCCF RECON,ioos:station:SCCF:16:1,2009-11-10T02:00:00Z,26.4345,-81.9647,2.5,23.88,2 
SCCF RECON,ioos:station:SCCF:16:1,2009-11-10T03:00:00Z,26.4345,-81.9647,2.5,23.77,2 
SCCF RECON,ioos:station:SCCF:16:1,2009-11-10T04:00:00Z,26.4345,-81.9647,2.5,23.64,2 
SCCF RECON,ioos:station:SCCF:16:1,2009-11-10T05:00:00Z,26.4345,-81.9647,2.5,23.41,2 
SCCF RECON,ioos:station:SCCF:16:1,2009-11-10T06:00:00Z,26.4345,-81.9647,2.5,23.24,2 
SCCF RECON,ioos:station:SCCF:16:1,2009-11-10T07:00:00Z,26.4345,-81.9647,2.5,23.32,2 
SCCF RECON,ioos:station:SCCF:16:1,2009-11-10T08:00:00Z,26.4345,-81.9647,2.5,23.32,2 
SCCF RECON,ioos:station:SCCF:16:1,2009-11-10T09:00:00Z,26.4345,-81.9647,2.5,23.24,2 
SCCF RECON,ioos:station:SCCF:16:1,2009-11-10T10:00:00Z,26.4345,-81.9647,2.5,23.2,2 
SCCF RECON,ioos:station:SCCF:16:1,2009-11-10T11:00:00Z,26.4345,-81.9647,2.5,23.26,2 
SCCF RECON,ioos:station:SCCF:16:1,2009-11-10T12:00:00Z,26.4345,-81.9647,2.5,23.48,2 
SCCF RECON,ioos:station:SCCF:16:1,2009-11-10T13:00:00Z,26.4345,-81.9647,2.5,23.61,2 
SCCF RECON,ioos:station:SCCF:16:1,2009-11-10T14:00:00Z,26.4345,-81.9647,2.5,23.73,2 
SCCF RECON,ioos:station:SCCF:16:1,2009-11-10T15:00:00Z,26.4345,-81.9647,2.5,23.64,2 
SCCF RECON,ioos:station:SCCF:16:1,2009-11-10T16:00:00Z,26.4345,-81.9647,2.5,23.49,2 
SCCF RECON,ioos:station:SCCF:16:1,2009-11-10T17:00:00Z,26.4345,-81.9647,2.5,23.43,2 
SCCF RECON,ioos:station:SCCF:16:1,2009-11-10T18:00:00Z,26.4345,-81.9647,2.5,23.35,2 
SCCF RECON,ioos:station:SCCF:16:1,2009-11-10T19:00:00Z,26.4345,-81.9647,2.5,23.39,2 
SCCF RECON,ioos:station:SCCF:16:1,2009-11-10T20:00:00Z,26.4345,-81.9647,2.5,23.46,2 
SCCF RECON,ioos:station:SCCF:16:1,2009-11-10T21:00:00Z,26.4345,-81.9647,2.5,23.49,2 
SCCF RECON,ioos:station:SCCF:16:1,2009-11-10T22:00:00Z,26.4345,-81.9647,2.5,23.45,2 
SCCF RECON,ioos:station:SCCF:16:1,2009-11-10T23:00:00Z,26.4345,-81.9647,2.5,23.46,2 
SCCF RECON,ioos:station:SCCF:16:1,2009-11-11T00:00:00Z,26.4345,-81.9647,2.5,23.53,2 
SCCF RECON,ioos:station:SCCF:16:1,2009-11-11T01:00:00Z,26.4345,-81.9647,2.5,23.74,2 
SCCF RECON,ioos:station:SCCF:16:1,2009-11-11T02:00:00Z,26.4345,-81.9647,2.5,23.75,2 
SCCF RECON,ioos:station:SCCF:16:1,2009-11-11T03:00:00Z,26.4345,-81.9647,2.5,23.75,2 
SCCF RECON,ioos:station:SCCF:16:1,2009-11-11T04:00:00Z,26.4345,-81.9647,2.5,23.69,2 
SCCF RECON,ioos:station:SCCF:16:1,2009-11-11T05:00:00Z,26.4345,-81.9647,2.5,23.58,2 
SCCF RECON,ioos:station:SCCF:16:1,2009-11-11T06:00:00Z,26.4345,-81.9647,2.5,23.51,2 
SCCF RECON,ioos:station:SCCF:16:1,2009-11-11T07:00:00Z,26.4345,-81.9647,2.5,23.41,2 
SCCF RECON,ioos:station:SCCF:16:1,2009-11-11T08:00:00Z,26.4345,-81.9647,2.5,23.39,2 
SCCF RECON,ioos:station:SCCF:16:1,2009-11-11T09:00:00Z,26.4345,-81.9647,2.5,23.4,2 
SCCF RECON,ioos:station:SCCF:16:1,2009-11-11T10:00:00Z,26.4345,-81.9647,2.5,23.39,2 
SCCF RECON,ioos:station:SCCF:16:1,2009-11-11T11:00:00Z,26.4345,-81.9647,2.5,23.39,2 
SCCF RECON,ioos:station:SCCF:16:1,2009-11-11T12:00:00Z,26.4345,-81.9647,2.5,23.4,2 
SCCF RECON,ioos:station:SCCF:16:1,2009-11-11T13:00:00Z,26.4345,-81.9647,2.5,23.41,2 
SCCF RECON,ioos:station:SCCF:16:1,2009-11-11T14:00:00Z,26.4345,-81.9647,2.5,23.47,2 
SCCF RECON,ioos:station:SCCF:16:1,2009-11-11T15:00:00Z,26.4345,-81.9647,2.5,23.57,2 
SCCF RECON,ioos:station:SCCF:16:1,2009-11-11T16:00:00Z,26.4345,-81.9647,2.5,23.62,2 
SCCF RECON,ioos:station:SCCF:16:1,2009-11-11T17:00:00Z,26.4345,-81.9647,2.5,23.53,2 
SCCF RECON,ioos:station:SCCF:16:1,2009-11-11T18:00:00Z,26.4345,-81.9647,2.5,23.65,2 
SCCF RECON,ioos:station:SCCF:16:1,2009-11-11T19:00:00Z,26.4345,-81.9647,2.5,23.9,2 
SCCF RECON,ioos:station:SCCF:16:1,2009-11-11T20:00:00Z,26.4345,-81.9647,2.5,23.95,2 
SCCF RECON,ioos:station:SCCF:16:1,2009-11-11T21:00:00Z,26.4345,-81.9647,2.5,23.99,2 
SCCF RECON,ioos:station:SCCF:16:1,2009-11-11T22:00:00Z,26.4345,-81.9647,2.5,24.15,2 
SCCF RECON,ioos:station:SCCF:16:1,2009-11-11T23:00:00Z,26.4345,-81.9647,2.5,24.31,2 
SCCF RECON,ioos:station:SCCF:16:1,2009-11-12T00:00:00Z,26.4345,-81.9647,2.5,24.38,2 
SCCF RECON,ioos:station:SCCF:16:1,2009-11-12T01:00:00Z,26.4345,-81.9647,2.5,24.42,2 
SCCF RECON,ioos:station:SCCF:16:1,2009-11-12T02:00:00Z,26.4345,-81.9647,2.5,24.49,2 
SCCF RECON,ioos:station:SCCF:16:1,2009-11-12T03:00:00Z,26.4345,-81.9647,2.5,24.45,2 
SCCF RECON,ioos:station:SCCF:16:1,2009-11-12T04:00:00Z,26.4345,-81.9647,2.5,24.43,2 
SCCF RECON,ioos:station:SCCF:16:1,2009-11-12T05:00:00Z,26.4345,-81.9647,2.5,24.32,2 
SCCF RECON,ioos:station:SCCF:16:1,2009-11-12T06:00:00Z,26.4345,-81.9647,2.5,24.16,2 
SCCF RECON,ioos:station:SCCF:16:1,2009-11-12T07:00:00Z,26.4345,-81.9647,2.5,23.94,2 
SCCF RECON,ioos:station:SCCF:16:1,2009-11-12T08:00:00Z,26.4345,-81.9647,2.5,23.87,2 
SCCF RECON,ioos:station:SCCF:16:1,2009-11-12T09:00:00Z,26.4345,-81.9647,2.5,23.9,2 
SCCF RECON,ioos:station:SCCF:16:1,2009-11-12T10:00:00Z,26.4345,-81.9647,2.5,23.81,2 
SCCF RECON,ioos:station:SCCF:16:1,2009-11-12T11:00:00Z,26.4345,-81.9647,2.5,23.81,2 
SCCF RECON,ioos:station:SCCF:16:1,2009-11-12T12:00:00Z,26.4345,-81.9647,2.5,23.77,2 
SCCF RECON,ioos:station:SCCF:16:1,2009-11-12T13:00:00Z,26.4345,-81.9647,2.5,23.74,2 
SCCF RECON,ioos:station:SCCF:16:1,2009-11-12T14:00:00Z,26.4345,-81.9647,2.5,23.67,2 
SCCF RECON,ioos:station:SCCF:16:1,2009-11-12T15:00:00Z,26.4345,-81.9647,2.5,23.61,2 
SCCF RECON,ioos:station:SCCF:16:1,2009-11-12T16:00:00Z,26.4345,-81.9647,2.5,23.6,2 